Lexington Weather

Lexington, Massachusetts, USA

34°F
4/16/2021 10:27am 
  • Lexington Conditions: Snow, Fog, Overcast
  • Temperature: 34.0°F / 1.1°C 
  • Dew Point: 32.7°F 
  • Relative Humidity: 95
  • Wind: Calm, 10-min avg: Calm, gust: None
  • Barometer: 29.49 in Steady
  • Visibility: ½ mile
  • Snow Today: 1.3 in
  •   

Regional Weather Roundup
for Boston / Norton, MA

        
000
ASUS41 KBOX 120104
RWRBOX

REGIONAL WEATHER ROUNDUP
NATIONAL WEATHER SERVICE BOSTON/NORTON MA
900 PM EDT SUN APR 11 2021

NOTE:  "FAIR" INDICATES FEW OR NO CLOUDS BELOW 12,000 FEET WITH NO 
SIGNIFICANT WEATHER AND/OR OBSTRUCTIONS TO VISIBILITY.

MAZALL-120200-
EASTERN MASSACHUSETTS
  
CITY           SKY/WX    TMP DP  RH WIND       PRES   REMARKS
BOSTON         CLOUDY    45  40  82 E10       29.81R                  
BEVERLY        MOCLDY    43  39  86 E5        29.80R                  
LAWRENCE       PTCLDY    43  39  86 E5        29.82R                  
BEDFORD        MOCLDY    44  39  82 NE6       29.79R                  
BLUE HILL        N/A     40  40 100 E9        29.77R                  
NORWOOD        CLOUDY    45  40  82 NE7       29.80R                  
MARSHFIELD     CLOUDY    45  43  93 E9        29.80R                  
PLYMOUTH       CLOUDY    43  41  93 NE13G18   29.78R                  
TAUNTON        CLOUDY    44  40  85 VRB5      29.78R                  
NEW BEDFORD    CLOUDY    45  41  86 NE9       29.76R                  
$$

MAZALL-120200-
CAPE COD AND THE ISLANDS
  
CITY           SKY/WX    TMP DP  RH WIND       PRES   REMARKS
FALMOUTH       CLOUDY    43  43 100 NE12G17   29.74S                  
HYANNIS        PTCLDY    45  41  86 NE8       29.75R                  
CHATHAM        PTCLDY    44  40  85 NE12      29.78R                  
PROVINCETOWN   MOCLDY    43  41  93 E10         N/A                   
NANTUCKET      MOCLDY    44  42  93 NE20G25   29.72R                  
MARTHAS VNYRD  CLOUDY    45  42  89 NE22G30   29.73R                  
$$
 
MAZALL-120200-
CENTRAL AND WESTERN MASSACHUSETTS
  
CITY           SKY/WX    TMP DP  RH WIND       PRES   REMARKS
WORCESTER      CLOUDY    44  39  82 VRB6      29.76R                  
FITCHBURG      MOCLDY    45  41  86 CALM      29.80R                  
ORANGE         CLOUDY    48  39  71 E9        29.78R                  
SPRINGFIELD    LGT RAIN  48  42  82 NE7       29.74R                  
WESTFIELD      LGT RAIN  48  44  86 NE5       29.74R                  
NORTH ADAMS    LGT RAIN  50  43  77 E13G24    29.72R                  
PITTSFIELD     LGT RAIN  47  42  83 E14G22    29.69R                  
$$
 
RIZALL-120200-
RHODE ISLAND
  
CITY           SKY/WX    TMP DP  RH WIND       PRES   REMARKS
PROVIDENCE     CLOUDY    45  41  86 NE15      29.77R                  
NEWPORT        LGT RAIN  44  42  93 NE12      29.74R                  
BLOCK ISLAND   CLOUDY    44  41  89 NE15G26   29.71F                  
SMITHFIELD     CLOUDY    43  42  97 NE6       29.78R                  
WESTERLY       CLOUDY    44  41  89 NE8       29.71R                  
$$
 
CTZALL-120200-
CONNECTICUT
  
CITY           SKY/WX    TMP DP  RH WIND       PRES   REMARKS
BRADLEY INTL   CLOUDY    49  42  77 NE12      29.74R                  
HARTFORD       CLOUDY    50  40  68 NE10      29.73R                  
BRIDGEPORT     LGT RAIN  50  46  86 E12       29.69R                  
DANBURY        LGT RAIN  51  45  79 E9G21     29.68R                  
GROTON         CLOUDY    47  42  83 NE15G24   29.70S                  
NEW HAVEN      CLOUDY    52  46  80 VRB7G18   29.69R                  
CHESTER        DRIZZLE   48  43  81 NE13      29.70R                  
MERIDEN        CLOUDY    50  41  71 NE9       29.71R                  
WILLIMANTIC    LGT RAIN  46  41  82 NE12      29.73S                  
OXFORD         CLOUDY    48  45  89 NE14      29.70R                  
$$

MEZ002-015-021-024-NHZ003-005-008-011-012-014-VTZ005-008-120200-
NORTHERN NEW ENGLAND
  
CITY           SKY/WX    TMP DP  RH WIND       PRES   REMARKS
PORTLAND ME    CLEAR     39  37  92 CALM      29.81R                  
BANGOR ME      PTCLDY    53  33  46 NE9       29.80R                  
CONCORD NH     CLEAR     47  36  65 CALM      29.80R                  
MANCHESTER NH  CLOUDY    46  38  73 SE6       29.79R                  
NASHUA NH      CLEAR     45  42  89 E7        29.81R                  
PORTSMOUTH NH  CLOUDY    42  39  88 E3        29.82R                  
JAFFREY NH     CLEAR     45  39  79 CALM      29.78R                  
KEENE NH       PTCLDY    49  39  68 NE3       29.78R                  
BURLINGTON VT  CLOUDY    62  41  46 SE14      29.66R                  
MT. WASHINGTON PTCLDY    30  14  51 E21         N/A  WCI  17          
$$

NYZ052-076-120200-
EASTERN NEW YORK
  
CITY           SKY/WX    TMP DP  RH WIND       PRES   REMARKS
ALBANY         LGT RAIN  50  45  83 S9        29.68R                  
NEW YORK CITY  CLOUDY    50  46  86 E17       29.64R                  
$$
 
ANZALL-120200-
MARINE OBSERVATIONS
  
STATION/POSITION TIME  TEMP    WIND        PRES    VSBY  WAVE
                       AIR SEA DIR/SP/G                  HT/PER
                 (UTC) (F)     (DEG/KT/KT) (MB)    (MI)  (FT/S)
BOSTON BUOY      0040   43 44   60/ 12/ 16 1009.6R
BUZZARDS BAY     0000           40/ 23/ 25 1006.8R
NANTUCKET SOUND  0040      47                N/A
MASS BAY-STELLWA NOT AVBL
ISLE OF SHOALS   0000   43      80/  8/  8 1008.5R
S OF BLOCK IS    0026      45                N/A           5/ 5
$$

......................KEY.........................
  SKY/WX - SKY CONDITION/PRESENT WEATHER
  TMP    - TEMPERATURE IN FAHRENHEIT
  DWPT   - DEWPOINT IN FAHRENHEIT
  RH     - RELATIVE HUMIDITY IN PERCENT
  WIND   - DIRECTION AND SPEED IN MPH
  PRES   - MEAN SEA LEVEL PRESSURE IN INCHES OF HG
  WCI    - WIND CHILL INDEX
  VSB    - VISIBILITY IN MILES
  HX     - HEAT INDEX
  TC     - TEMPERATURE IN CELSIUS
  VRB    - VARIABLE WIND DIRECTION
  N/A    - NOT AVAILABLE
  
      

Other recent Regional Weather Roundups

Fri Apr 16, 10:05am

Fri Apr 16, 9:04am

Fri Apr 16, 8:04am

Fri Apr 16, 7:04am

Fri Apr 16, 6:04am

Fri Apr 16, 5:04am

Fri Apr 16, 4:04am

Fri Apr 16, 3:04am

Fri Apr 16, 2:04am

Fri Apr 16, 1:04am

Fri Apr 16, 12:04am

Thu Apr 15, 11:05pm

Thu Apr 15, 10:04pm

Thu Apr 15, 9:04pm

Thu Apr 15, 8:04pm

Thu Apr 15, 7:05pm

Thu Apr 15, 6:04pm

Thu Apr 15, 5:05pm

Thu Apr 15, 4:04pm

Thu Apr 15, 3:05pm

Thu Apr 15, 2:04pm

Thu Apr 15, 1:05pm

Thu Apr 15, 12:04pm

Thu Apr 15, 11:04am

Thu Apr 15, 10:05am

Thu Apr 15, 9:04am

Thu Apr 15, 8:04am

Thu Apr 15, 7:04am

Thu Apr 15, 6:04am

Thu Apr 15, 5:04am

Thu Apr 15, 4:04am

Thu Apr 15, 3:04am

Thu Apr 15, 2:04am

Thu Apr 15, 1:04am

Thu Apr 15, 12:04am

Wed Apr 14, 11:04pm

Wed Apr 14, 10:04pm

Wed Apr 14, 9:04pm

Wed Apr 14, 8:04pm

Wed Apr 14, 7:04pm

Wed Apr 14, 6:04pm

Wed Apr 14, 5:05pm

Wed Apr 14, 4:04pm

Wed Apr 14, 3:05pm

Wed Apr 14, 2:04pm

Wed Apr 14, 1:05pm

Wed Apr 14, 12:04pm

Wed Apr 14, 11:04am

Wed Apr 14, 10:04am

Wed Apr 14, 9:04am

Wed Apr 14, 8:04am

Wed Apr 14, 7:04am

Wed Apr 14, 6:04am

Wed Apr 14, 5:04am

Wed Apr 14, 4:04am

Wed Apr 14, 3:04am

Wed Apr 14, 2:04am

Wed Apr 14, 1:04am

Wed Apr 14, 12:04am

Tue Apr 13, 11:04pm

Tue Apr 13, 10:05pm

Tue Apr 13, 9:05pm

Tue Apr 13, 8:05pm

Tue Apr 13, 7:04pm

Tue Apr 13, 6:04pm

Tue Apr 13, 5:05pm

Tue Apr 13, 4:04pm

Tue Apr 13, 3:04pm

Tue Apr 13, 2:05pm

Tue Apr 13, 1:04pm

Tue Apr 13, 12:05pm

Tue Apr 13, 11:05am

Tue Apr 13, 10:04am

Tue Apr 13, 9:04am

Tue Apr 13, 8:04am

Tue Apr 13, 7:04am

Tue Apr 13, 6:04am

Tue Apr 13, 5:04am

Tue Apr 13, 4:04am

Tue Apr 13, 3:04am

Tue Apr 13, 2:04am

Tue Apr 13, 1:04am

Tue Apr 13, 12:05am

Mon Apr 12, 11:04pm

Mon Apr 12, 10:04pm

Mon Apr 12, 9:04pm

Mon Apr 12, 8:04pm

Mon Apr 12, 7:05pm

Mon Apr 12, 6:04pm

Mon Apr 12, 5:04pm

Mon Apr 12, 4:04pm

Mon Apr 12, 3:05pm

Mon Apr 12, 2:04pm

Mon Apr 12, 1:05pm

Mon Apr 12, 12:04pm

Mon Apr 12, 11:04am

Mon Apr 12, 10:04am

Mon Apr 12, 9:04am

Mon Apr 12, 8:04am

Mon Apr 12, 7:04am

Mon Apr 12, 6:04am

Mon Apr 12, 5:04am

Mon Apr 12, 4:04am

Mon Apr 12, 3:04am

Mon Apr 12, 2:04am

Mon Apr 12, 1:05am

Mon Apr 12, 12:04am

Sun Apr 11, 11:04pm

Sun Apr 11, 10:04pm

Sun Apr 11, 8:04pm

Sun Apr 11, 7:04pm

Sun Apr 11, 6:05pm

Sun Apr 11, 5:05pm

Sun Apr 11, 4:04pm

Sun Apr 11, 3:05pm

Sun Apr 11, 2:05pm

Sun Apr 11, 1:05pm

Sun Apr 11, 12:04pm

Sun Apr 11, 11:05am

Sun Apr 11, 10:05am

Sun Apr 11, 9:04am

Sun Apr 11, 8:04am

Sun Apr 11, 7:04am

Sun Apr 11, 6:04am

Sun Apr 11, 5:04am

Sun Apr 11, 4:04am

Sun Apr 11, 3:04am

Sun Apr 11, 2:04am

Sun Apr 11, 1:05am

Sun Apr 11, 12:04am

Sat Apr 10, 11:05pm

Sat Apr 10, 10:04pm

Sat Apr 10, 9:04pm

Sat Apr 10, 8:04pm

Sat Apr 10, 7:05pm

Sat Apr 10, 6:04pm

Sat Apr 10, 5:04pm

Sat Apr 10, 4:04pm

Sat Apr 10, 3:04pm

Sat Apr 10, 2:05pm

Sat Apr 10, 1:04pm

Sat Apr 10, 12:04pm

Sat Apr 10, 11:04am

Sat Apr 10, 10:04am

Sat Apr 10, 9:04am

Sat Apr 10, 8:04am

Sat Apr 10, 7:04am

Sat Apr 10, 6:04am

Sat Apr 10, 5:04am

Sat Apr 10, 4:04am

Sat Apr 10, 3:04am

Sat Apr 10, 2:04am

Sat Apr 10, 1:05am

Sat Apr 10, 12:04am

Fri Apr 9, 11:04pm

Fri Apr 9, 10:05pm

Fri Apr 9, 9:04pm

Fri Apr 9, 8:05pm

Fri Apr 9, 7:05pm

Fri Apr 9, 6:04pm

Fri Apr 9, 5:04pm

Fri Apr 9, 4:05pm

Fri Apr 9, 3:05pm

Fri Apr 9, 2:04pm

Fri Apr 9, 1:04pm

Fri Apr 9, 12:04pm

Fri Apr 9, 11:05am

Meta data:

ID: 0d0a5a8c-3689-4e0e-aeeb-3c51a3281bac
Link: https://api.weather.gov/products/0d0a5a8c-3689-4e0e-aeeb-3c51a3281bac